Regional Weather Roundup
Issued by NWS Goodland, KS

Home | Current Version | Previous Version | Graphics & Text | Print | Product List | Glossary On
Versions: 1 2 3 4 5 6 7 8 9 10 11 12 13 14 15 16 17 18 19 20 21 22 23 24 25 26 27 28 29 30 31 32 33 34 35 36 37 38 39 40 41 42 43 44 45 46 47 48 49 50
000
ASUS43 KGLD 060559
RWRGLD

GOODLAND FORECAST AREA HOURLY WEATHER ROUNDUP
NATIONAL WEATHER SERVICE GOODLAND KS
1100 PM MST MON DEC 05 2016

...OFFICIAL OBSERVATIONS...

CITY           SKY/WX    TMP DP  RH WIND       PRES   REMARKS
GOODLAND KS    CLEAR     18  11  74 NW10      29.95R WCI   6
HILL CITY KS   CLOUDY    31  17  56 N20       29.95R WCI  19
IMPERIAL NEB   CLEAR     23  10  57 NW15      29.97R WCI  10
MCCOOK NEB     CLOUDY    28  16  60 NW14      29.97R WCI  17
AKRON CO       CLOUDY    12   6  77 NW9       29.95R
BURLINGTON CO  CLEAR     20   9  62 N9        29.95R
LIMON CO       CLEAR     12   6  77 N3        29.91R
$$

...UNOFFICIAL OBSERVATIONS...

CITY           SKY/WX    TMP DP  RH WIND       PRES   REMARKS
COLBY KS       CLEAR     27  19  74 NW10      29.96R WCI  17
LENORA KS        N/A     30  32 100 MISG        N/A
NORTON KS      CLOUDY    28  12  50 NW17      29.94R WCI  16
SHARON SPRINGS   N/A     23  13  64 N12         N/A  WCI  12
TRENTON NEB      N/A     27  32 100 NW12        N/A  WCI  17
KIT CARSON CO    N/A     21  10  63 MISG        N/A
YUMA CO        FAIR      14   7  73 NW8       29.97R
$$




USA.gov is the U.S. government's official web portal to all federal, state and local government web resources and services.